Вернуться в каталог

STARLINK-5970

АктивенСвязьVLEO
NORAD 56450·PAYLOAD·🇺🇸 United States

Запущен May 10, 2023 с Vandenberg Space Force Base

Loading…

Ближайшие Пролёты (ближайшие 24 часа)

TLE

СвежийSource: CelesTrak SupGP

Эпоха: Sep 14, 2026, 14:10 UTC

1 56450C 23064C   26257.59076389 -.00055508  00000+0 -46507-2 0  2579
2 56450  70.0030  28.2160 0002860 271.4356 335.1356 14.98368316    11

Отслеживайте STARLINK-5970 в реальном времени с AllMySat

Download on the App Store